Location: Sabalos
(43.2860°N, 0.1414°E)
Time: 10:33:43
(UTC+00:00)

Atlas Centaur 2 - Pass Details

Date: 05 July 2020
Orbit: 459 x 1310 km, 30.4° (Epoch: 05 August)

Event Time Altitude Azimuth Distance (km) Brightness Sun altitude
Rises 20:26:07 0° 238° (WSW) 3,167 5.4 -7.2°
Reaches altitude 10° 20:28:46 10° 224° (SW) 2,386 4.6 -7.6°
Maximum altitude 20:33:20 24° 172° (S) 1,799 3.5 -8.2°
Drops below altitude 10° 20:38:45 10° 121° (ESE) 2,879 4.3 -8.9°
Enters shadow 20:38:48 10° 121° (ESE) 2,890 4.3 -8.9°
